Tracking 22441 objects as of 28-Feb-2021
HD Live streaming from Space Station
objects crossing your sky now

FREGAT DEB

Track FREGAT DEB now!
10-day predictions


NORAD ID: 45966
Int'l Code: 2011-037FX
Perigee: 652.0 km
Apogee: 5,776.3 km
Inclination: 51.3 °
Period: 155.7 minutes
Semi major axis: 9585 km
RCS: Unknown
Launch date: July 18, 2011
Source: Commonwealth of Independent States (former USSR) (CIS)
Launch site: TYURATAM MISSILE AND SPACE COMPLEX (TTMTR)

Note: This is SATELLITE DEBRIS
aabbcc
Your satellite tracking list
Your tracking list is empty




NASA's NSSDC Master Catalog

Two Line Element Set (TLE):
1 45966U 11037FX  20233.49927517 -.00002399 +00000-0 -40449-2 0  9994
2 45966 051.3395 271.9272 2673030 114.5781 275.5606 09.25136552002513
Source of the keplerian elements: AFSPC